Pinedale, WY

6:11 PM MDT on May 24, 2017 (GMT -0600)
Wenz

Weather History for KPNA - November, 2011

Change the Weather History Date:

Monday, November 21, 2011

  Actual Average (KBPI) Record (KBPI)
Temperature  
Mean Temperature 22 °F -  
Max Temperature 32 °F 33 °F 53 °F (1989)
Min Temperature 12 °F 7 °F -10 °F (2015)
Degree Days  
Heating Degree Days 43    
Moisture  
Dew Point 19 °F    
Average Humidity 91    
Maximum Humidity 100    
Minimum Humidity 73    
Precipitation  
Precipitation 0.00 in - - ()
Sea Level Pressure  
Sea Level Pressure 30.04 in    
Wind  
Wind Speed 2 mph (SSW)    
Max Wind Speed 8 mph    
Max Gust Speed -    
Visibility 9 miles    
Events Snow    
Averages and records for this station are not official NWS values.
T = Trace of Precipitation, MM = Missing Value Source: NWS Daily Summary

Daily Weather History Graph

Daily Weather History Graph

Search for Another Location

Airport or City:

Trip Planner

Search our weather history database for the weather conditions in past years. The results will help you decide how hot, cold, wet, or windy it might be!

Date:

Astronomy

Nov. 21, 2011 Rise Set
Actual Time 7:18 AM MST 4:51 PM MST
Civil Twilight 6:47 AM MST 5:22 PM MST
Nautical Twilight 6:12 AM MST 5:56 PM MST
Astronomical Twilight 5:39 AM MST 6:30 PM MST
Moon 2:55 AM MST (11/21) 2:19 PM MST (11/21)
Length of Visible Light 10h 34m
Length of Day
9h 33m
Waning Crescent, 17% of the Moon is Illuminated
Nov 21
Waning Crescent
Nov 24
New
Dec 2
First Quarter
Dec 10
Full
Dec 17
Last Quarter

Hourly Weather History & Observations

Time (MST) Temp. Windchill Dew Point Humidity Pressure Visibility Wind Dir Wind Speed Gust Speed Precip Events Conditions
12:15 AM 15.8 °F 8.6 °F 15.4 °F 98% 30.05 in 10.0 mi NNE 4.6 mph - N/A   Overcast
12:35 AM 16.5 °F 11.0 °F 16.3 °F 99% 30.05 in 10.0 mi SSW 3.5 mph - N/A   Overcast
12:55 AM 16.7 °F - 16.5 °F 99% 30.05 in 10.0 mi Calm Calm - N/A   Overcast
1:15 AM 16.2 °F - 16.0 °F 99% 30.05 in 10.0 mi Calm Calm - N/A   Overcast
1:35 AM 16.7 °F - 16.5 °F 99% 30.05 in 10.0 mi Calm Calm - N/A   Overcast
1:55 AM 16.5 °F - 16.3 °F 99% 30.05 in 10.0 mi Calm Calm - N/A   Scattered Clouds
2:15 AM 15.6 °F - 15.4 °F 99% 30.04 in 10.0 mi Calm Calm - N/A   Mostly Cloudy
2:35 AM 16.9 °F 11.5 °F 16.9 °F 100% 30.04 in 10.0 mi NE 3.5 mph - N/A   Overcast
2:55 AM 17.2 °F 10.2 °F 16.9 °F 98% 30.03 in 10.0 mi North 4.6 mph - N/A   Overcast
3:15 AM 15.8 °F 10.2 °F 15.4 °F 98% 30.04 in 10.0 mi WSW 3.5 mph - N/A   Mostly Cloudy
3:35 AM 15.4 °F 8.1 °F 15.3 °F 99% 30.03 in 10.0 mi West 4.6 mph - N/A   Mostly Cloudy
3:55 AM 12.9 °F 5.2 °F 12.2 °F 97% 30.03 in 10.0 mi WNW 4.6 mph - N/A   Mostly Cloudy
4:15 AM 12.9 °F - 12.4 °F 98% 30.03 in 10.0 mi Calm Calm - N/A   Mostly Cloudy
4:35 AM 13.3 °F - 12.9 °F 98% 30.03 in 10.0 mi Calm Calm - N/A   Scattered Clouds
4:55 AM 13.8 °F - 13.6 °F 99% 30.03 in 10.0 mi Calm Calm - N/A   Mostly Cloudy
5:15 AM 14.7 °F - 14.2 °F 98% 30.04 in 10.0 mi Calm Calm - N/A   Overcast
5:35 AM 13.6 °F - 13.1 °F 98% 30.03 in 10.0 mi Calm Calm - N/A   Mostly Cloudy
5:55 AM 14.2 °F 8.4 °F 13.8 °F 98% 30.03 in 10.0 mi WSW 3.5 mph - N/A   Overcast
6:15 AM 13.5 °F 4.4 °F 13.1 °F 98% 30.03 in 10.0 mi West 5.8 mph - N/A   Overcast
6:35 AM 13.8 °F 3.7 °F 13.1 °F 97% 30.03 in 10.0 mi West 6.9 mph - N/A   Overcast
6:55 AM 14.0 °F 6.5 °F 13.6 °F 98% 30.03 in 10.0 mi WNW 4.6 mph - N/A   Overcast
7:15 AM 14.7 °F 9.0 °F 14.0 °F 97% 30.03 in 7.0 mi NNW 3.5 mph - N/A   Overcast
7:35 AM 16.7 °F - 16.5 °F 99% 30.04 in 7.0 mi Calm Calm - N/A   Overcast
7:55 AM 16.7 °F - 16.3 °F 98% 30.04 in 10.0 mi Calm Calm - N/A   Overcast
8:15 AM 17.4 °F - 16.9 °F 98% 30.05 in 7.0 mi Calm Calm - N/A   Overcast
8:35 AM 18.1 °F 12.9 °F 17.4 °F 97% 30.05 in 3.0 mi East 3.5 mph - N/A Snow Light Snow
8:55 AM 18.9 °F 12.1 °F 18.3 °F 98% 30.05 in 4.0 mi East 4.6 mph - N/A Snow Light Snow
9:15 AM 19.6 °F - 18.7 °F 96% 30.05 in 7.0 mi Calm Calm - N/A   Overcast
9:35 AM 20.1 °F - 18.5 °F 93% 30.06 in 7.0 mi Calm Calm - N/A Snow Light Snow
9:55 AM 22.1 °F - 19.0 °F 88% 30.06 in 7.0 mi Calm Calm - N/A   Overcast
10:15 AM 23.9 °F - 19.4 °F 83% 30.05 in 10.0 mi Calm Calm - N/A   Scattered Clouds
10:35 AM 25.9 °F - 20.3 °F 79% 30.06 in 10.0 mi Calm Calm - N/A   Clear
10:55 AM 27.1 °F - 20.7 °F 77% 30.06 in 10.0 mi Calm Calm - N/A   Scattered Clouds
11:15 AM 30.0 °F - 22.3 °F 73% 30.06 in 10.0 mi Calm Calm - N/A   Overcast
11:35 AM 28.0 °F 21.7 °F 23.5 °F 83% 30.05 in 10.0 mi SSE 5.8 mph - N/A   Overcast
11:55 AM 27.5 °F 22.2 °F 23.7 °F 86% 30.05 in 10.0 mi South 4.6 mph - N/A   Overcast
12:15 PM 27.3 °F 23.4 °F 23.7 °F 86% 30.04 in 10.0 mi SE 3.5 mph - N/A   Overcast
12:35 PM 28.2 °F 20.2 °F 24.6 °F 86% 30.02 in 10.0 mi East 8.1 mph - N/A   Overcast
12:55 PM 29.1 °F 23.0 °F 25.0 °F 85% 30.02 in 10.0 mi ESE 5.8 mph - N/A   Mostly Cloudy
1:15 PM 29.1 °F 24.1 °F 25.0 °F 85% 30.02 in 10.0 mi ESE 4.6 mph - N/A   Scattered Clouds
1:35 PM 32.0 °F - 24.8 °F 75% 30.01 in 10.0 mi Calm Calm - N/A   Scattered Clouds
1:55 PM 30.7 °F 27.3 °F 24.6 °F 78% 30.02 in 10.0 mi SSE 3.5 mph - N/A   Mostly Cloudy
2:15 PM 31.1 °F 27.7 °F 24.8 °F 77% 30.01 in 10.0 mi SE 3.5 mph - N/A   Mostly Cloudy
2:35 PM 30.2 °F 26.7 °F 24.1 °F 78% 30.01 in 10.0 mi South 3.5 mph - N/A   Mostly Cloudy
2:55 PM 31.1 °F - 24.4 °F 76% 30.01 in 10.0 mi Calm Calm - N/A   Overcast
3:15 PM 31.6 °F - 24.4 °F 75% 30.02 in 10.0 mi Calm Calm - N/A   Overcast
3:55 PM 30.2 °F 25.4 °F 25.0 °F 81% 30.04 in 7.0 mi West 4.6 mph - N/A Snow Light Snow
4:15 PM 29.3 °F - 25.5 °F 86% 30.05 in 2.5 mi Calm Calm - N/A Snow Light Snow
4:35 PM 28.4 °F - 25.7 °F 90% 30.05 in 10.0 mi Calm Calm - N/A   Mostly Cloudy
4:55 PM 25.9 °F 21.7 °F 24.1 °F 93% 30.05 in 10.0 mi SW 3.5 mph - N/A   Scattered Clouds
5:15 PM 23.2 °F 18.7 °F 22.3 °F 96% 30.05 in 10.0 mi NNW 3.5 mph - N/A   Scattered Clouds
5:35 PM 18.7 °F - 18.0 °F 97% 30.06 in 7.0 mi Calm Calm - N/A   Scattered Clouds
5:55 PM 19.2 °F - 19.2 °F 100% 30.07 in 5.0 mi Calm Calm - N/A   Clear
6:15 PM 17.4 °F 12.1 °F 17.2 °F 99% 30.08 in 10.0 mi West 3.5 mph - N/A   Clear
6:35 PM 18.0 °F 12.7 °F 18.1 °F 100% 30.08 in 5.0 mi West 3.5 mph - N/A   Clear
6:55 PM 14.2 °F - 14.2 °F 100% 30.09 in 3.0 mi Calm Calm - N/A   Clear
7:15 PM 14.0 °F - 14.2 °F 100% 30.09 in 0.2 mi Calm Calm - N/A Fog Light Freezing Fog
7:35 PM 14.5 °F 8.8 °F 14.7 °F 100% 30.11 in 0.2 mi WSW 3.5 mph - N/A Fog Light Freezing Fog
7:55 PM 12.6 °F 3.4 °F 12.2 °F 98% 30.11 in 0.5 mi NW 5.8 mph - N/A Fog Light Freezing Fog
8:35 PM 11.8 °F - 11.5 °F 98% 30.13 in 0.8 mi Calm Calm - N/A   Overcast
8:55 PM 12.0 °F 5.9 °F 11.3 °F 97% 30.13 in 0.2 mi WNW 3.5 mph - N/A Fog Light Freezing Fog
9:15 PM 10.4 °F - 9.7 °F 97% 30.14 in 0.2 mi Calm Calm - N/A Fog Light Freezing Fog
9:35 PM 7.5 °F -1.1 °F 6.3 °F 95% 30.15 in 0.2 mi NNW 4.6 mph - N/A Fog Light Freezing Fog
9:55 PM 6.8 °F -0.1 °F 5.5 °F 95% 30.16 in 0.5 mi WNW 3.5 mph - N/A Fog Light Freezing Fog
10:15 PM 6.3 °F -0.7 °F 5.0 °F 95% 30.16 in 0.5 mi WSW 3.5 mph - N/A Fog Light Freezing Fog
10:35 PM 7.2 °F - 5.7 °F 94% 30.16 in 0.2 mi Calm Calm - N/A Fog Light Freezing Fog
10:55 PM - - - N/A% 30.17 in 0.5 mi Calm Calm - N/A Fog Fog
11:15 PM - - - N/A% 30.18 in 0.2 mi Calm Calm - N/A Fog Fog
11:35 PM - - - N/A% 30.19 in 0.2 mi Calm Calm - N/A Fog Fog
11:55 PM - - - N/A% 30.19 in 0.5 mi Calm Calm - N/A Fog Fog